When you browse on this site, cookies collect data to enhance your experience and personalize the content and advertising you see.
Visit our Privacy Policy to learn more. By continuing to use the site, you agree to this use of cookies and data.
  • In United Kingdom
  • List of Countries
  • For 7 days
  • Water Temperature
  • Satellite Maps
  • Weather Map
  • Weather Widgets
  • user-avatar
    Login

    Hourly Weather Karakalpakiya

    Today, 24 January, Thursday

    Time Temperature Precipitation Wind Pressure Humidity
    00:00 -10°C° 0 mm 3 mps 760 mmHg 80%
    01:00 -10°C° 0 mm 3 mps 760 mmHg 80%
    02:00 -10°C° 0 mm 3 mps 761 mmHg 80%
    03:00 -12°C° 0 mm 3 mps 761 mmHg 79%
    04:00 -12°C° 0 mm 3 mps 761 mmHg 79%
    05:00 -12°C° 0 mm 3 mps 761 mmHg 78%
    06:00 -12°C° 0 mm 3 mps 761 mmHg 78%
    07:00 -12°C° 0 mm 3 mps 762 mmHg 77%
    08:00 -12°C° 0 mm 3 mps 762 mmHg 74%
    09:00 -11°C° 0 mm 4 mps 762 mmHg 71%
    10:00 -11°C° 0 mm 4 mps 762 mmHg 68%
    11:00 -10°C° 0 mm 4 mps 762 mmHg 68%
    12:00 -10°C° 0 mm 5 mps 762 mmHg 67%
    13:00 -7°C° 0 mm 5 mps 762 mmHg 67%
    14:00 -7°C° 0 mm 5 mps 761 mmHg 73%
    15:00 -6°C° 0 mm 5 mps 761 mmHg 79%
    16:00 -5°C° 0 mm 5 mps 761 mmHg 85%
    17:00 -6°C° 0 mm 5 mps 761 mmHg 86%
    18:00 -6°C° 0 mm 6 mps 761 mmHg 88%
    19:00 -8°C° 0 mm 6 mps 761 mmHg 89%
    20:00 -8°C° 0 mm 7 mps 760 mmHg 90%
    21:00 -8°C° 0 mm 7 mps 760 mmHg 92%
    22:00 -8°C° 0 mm 7 mps 760 mmHg 93%
    23:00 -7°C° 0 mm 8 mps 759 mmHg 93%

    Tomorrow, 25 January, Friday

    Time Temperature Precipitation Wind Pressure Humidity
    00:00 -7°C° 0 mm 8 mps 759 mmHg 92%
    01:00 -6°C° 0 mm 8 mps 758 mmHg 92%
    02:00 -6°C° 0 mm 8 mps 758 mmHg 92%
    03:00 -6°C° 0 mm 8 mps 758 mmHg 92%
    04:00 -6°C° 0 mm 8 mps 757 mmHg 92%
    05:00 -6°C° 0 mm 8 mps 757 mmHg 91%
    06:00 -6°C° 0 mm 8 mps 756 mmHg 90%
    07:00 -6°C° 0 mm 8 mps 756 mmHg 89%
    08:00 -5°C° 0 mm 8 mps 756 mmHg 86%
    09:00 -5°C° 0 mm 8 mps 756 mmHg 84%
    10:00 -4°C° 0 mm 8 mps 756 mmHg 81%
    11:00 -2°C° 0 mm 8 mps 755 mmHg 81%
    12:00 -1°C° 0 mm 7 mps 755 mmHg 80%
    13:00 0°C° 0 mm 7 mps 755 mmHg 80%
    14:00 0°C° 0 mm 7 mps 754 mmHg 78%
    15:00 +1°C° 0 mm 6 mps 754 mmHg 76%
    16:00 +1°C° 0 mm 6 mps 754 mmHg 74%
    17:00 -1°C° 0 mm 6 mps 754 mmHg 73%
    18:00 -1°C° 0 mm 6 mps 754 mmHg 72%
    19:00 -2°C° 0 mm 6 mps 754 mmHg 71%
    20:00 -2°C° 0 mm 6 mps 754 mmHg 71%
    21:00 -2°C° 0 mm 6 mps 754 mmHg 71%
    22:00 -2°C° 0 mm 6 mps 754 mmHg 71%
    23:00 -1°C° 0 mm 5 mps 754 mmHg 72%

    Day after tomorrow, 26 January, Saturday

    Time Temperature Precipitation Wind Pressure Humidity
    00:00 -1°C° 0 mm 5 mps 754 mmHg 72%
    01:00 -1°C° 0 mm 5 mps 754 mmHg 73%
    02:00 -1°C° 0 mm 5 mps 753 mmHg 72%
    03:00 -1°C° 0 mm 4 mps 753 mmHg 72%
    04:00 -2°C° 0 mm 4 mps 753 mmHg 72%
    05:00 -2°C° 0 mm 4 mps 753 mmHg 71%
    06:00 -2°C° 0 mm 4 mps 753 mmHg 71%
    07:00 -2°C° 0 mm 4 mps 754 mmHg 71%
    08:00 -1°C° 0 mm 4 mps 754 mmHg 70%
    09:00 -1°C° 0 mm 4 mps 754 mmHg 69%
    10:00 0°C° 0 mm 4 mps 754 mmHg 69%
    11:00 0°C° 0 mm 4 mps 754 mmHg 68%
    12:00 +1°C° 0 mm 4 mps 754 mmHg 68%
    13:00 +3°C° 0 mm 4 mps 754 mmHg 67%
    14:00 +1°C° 0 mm 4 mps 754 mmHg 68%
    15:00 +1°C° 0 mm 4 mps 754 mmHg 70%
    16:00 +1°C° 0 mm 4 mps 753 mmHg 71%
    17:00 0°C° 0 mm 4 mps 753 mmHg 72%
    18:00 -1°C° 0 mm 4 mps 754 mmHg 73%
    19:00 -1°C° 0 mm 5 mps 754 mmHg 74%
    20:00 -1°C° 0 mm 5 mps 754 mmHg 74%
    21:00 -2°C° 0 mm 5 mps 754 mmHg 74%
    22:00 -2°C° 0 mm 5 mps 753 mmHg 74%
    23:00 -2°C° 0 mm 5 mps 753 mmHg 74%

    27 January, Sunday

    Time Temperature Precipitation Wind Pressure Humidity
    00:00 -2°C° 0 mm 5 mps 753 mmHg 75%
    01:00 -2°C° 0 mm 5 mps 753 mmHg 75%
    02:00 -2°C° 0 mm 5 mps 753 mmHg 76%
    03:00 -2°C° 0 mm 5 mps 753 mmHg 76%
    04:00 -2°C° 0 mm 5 mps 753 mmHg 76%
    05:00 -2°C° 0 mm 5 mps 753 mmHg 76%
    06:00 -3°C° 0 mm 6 mps 752 mmHg 75%
    07:00 -2°C° 0 mm 6 mps 752 mmHg 74%
    08:00 -2°C° 0 mm 6 mps 752 mmHg 74%
    09:00 -1°C° 0 mm 6 mps 752 mmHg 73%
    10:00 -1°C° 0 mm 7 mps 752 mmHg 73%
    11:00 +1°C° 0.1 mm 6 mps 752 mmHg 75%
    12:00 +1°C° 0.1 mm 6 mps 751 mmHg 76%
    13:00 +1°C° 0.1 mm 6 mps 751 mmHg 78%
    14:00 0°C° 0 mm 7 mps 750 mmHg 77%
    15:00 0°C° 0 mm 7 mps 750 mmHg 76%
    16:00 0°C° 0 mm 7 mps 749 mmHg 75%
    17:00 0°C° 0 mm 7 mps 749 mmHg 76%
    18:00 -1°C° 0 mm 7 mps 749 mmHg 77%
    19:00 -1°C° 0 mm 7 mps 749 mmHg 78%
    20:00 -1°C° 0 mm 7 mps 749 mmHg 79%
    21:00 -1°C° 0 mm 6 mps 748 mmHg 80%
    22:00 -1°C° 0 mm 6 mps 748 mmHg 80%
    23:00 0°C° 0 mm 5 mps 748 mmHg 81%

    28 January, Monday

    Time Temperature Precipitation Wind Pressure Humidity
    00:00 0°C° 0 mm 4 mps 748 mmHg 82%
    01:00 0°C° 0 mm 3 mps 748 mmHg 82%
    02:00 0°C° 0 mm 3 mps 748 mmHg 83%
    03:00 +1°C° 0 mm 2 mps 747 mmHg 85%
    04:00 +1°C° 0 mm 2 mps 747 mmHg 86%
    05:00 +2°C° 0 mm 1 mps 747 mmHg 87%
    06:00 +2°C° 0 mm 1 mps 747 mmHg 88%
    07:00 +2°C° 0 mm 1 mps 747 mmHg 90%
    08:00 +3°C° 0 mm 1 mps 748 mmHg 89%
    09:00 +4°C° 0 mm 1 mps 748 mmHg 88%
    10:00 +4°C° 0 mm 1 mps 748 mmHg 87%
    11:00 +5°C° 0 mm 1 mps 748 mmHg 85%
    12:00 +5°C° 0 mm 0 mps 748 mmHg 83%
    13:00 +6°C° 0 mm 0 mps 748 mmHg 81%
    14:00 +6°C° 0 mm 1 mps 748 mmHg 83%
    15:00 +5°C° 0 mm 1 mps 747 mmHg 85%
    16:00 +5°C° 0 mm 1 mps 747 mmHg 87%
    17:00 +3°C° 0 mm 2 mps 748 mmHg 87%
    18:00 +3°C° 0 mm 2 mps 748 mmHg 86%
    19:00 +1°C° 0 mm 3 mps 748 mmHg 86%
    20:00 +1°C° 0 mm 3 mps 748 mmHg 86%
    21:00 +1°C° 0 mm 3 mps 748 mmHg 87%
    22:00 +1°C° 0 mm 3 mps 748 mmHg 87%
    23:00 +1°C° 0 mm 3 mps 748 mmHg 87%

    29 January, Tuesday

    Time Temperature Precipitation Wind Pressure Humidity
    00:00 +1°C° 0 mm 3 mps 748 mmHg 87%
    01:00 0°C° 0 mm 3 mps 748 mmHg 87%
    02:00 0°C° 0 mm 3 mps 748 mmHg 88%
    03:00 0°C° 0 mm 3 mps 748 mmHg 89%
    04:00 0°C° 0 mm 3 mps 748 mmHg 89%
    05:00 0°C° 0 mm 3 mps 748 mmHg 90%
    06:00 -1°C° 0 mm 4 mps 748 mmHg 90%
    07:00 -1°C° 0 mm 5 mps 748 mmHg 91%
    08:00 -1°C° 0 mm 5 mps 748 mmHg 88%
    09:00 0°C° 0 mm 5 mps 748 mmHg 86%
    10:00 0°C° 0 mm 5 mps 748 mmHg 84%
    11:00 +1°C° 0 mm 5 mps 748 mmHg 82%
    12:00 +2°C° 0 mm 5 mps 748 mmHg 80%
    13:00 +2°C° 0 mm 5 mps 748 mmHg 79%
    14:00 +2°C° 0 mm 5 mps 748 mmHg 80%
    15:00 +1°C° 0 mm 6 mps 747 mmHg 82%
    16:00 0°C° 0 mm 7 mps 747 mmHg 84%
    17:00 -1°C° 0 mm 7 mps 748 mmHg 84%
    18:00 -2°C° 0 mm 7 mps 748 mmHg 85%
    19:00 -3°C° 0 mm 7 mps 749 mmHg 86%
    20:00 -3°C° 0 mm 7 mps 749 mmHg 85%
    21:00 -3°C° 0 mm 6 mps 749 mmHg 85%
    22:00 -4°C° 0 mm 6 mps 749 mmHg 84%
    23:00 -4°C° 0 mm 6 mps 749 mmHg 84%
    Show more